FW2527 Weather Reports


Display with metric or nautical units.
time (UTC)temp
F
wind
direction
speed
MPH
gust
MPH
rain 1hr
in
rain 24hr
in
rain mn
in
humidity
%
barometer
mb
20220518130012 82 221 3.0 9.0 0.00 0.00 0.00 50 1020.1
20220518125603 83 263 4.0 9.0 0.00 0.00 0.00 50 1020.1
20220518125036 83 265 3.0 9.0 0.00 0.00 0.00 50 1020.1
20220518124504 82 149 4.0 12.0 0.00 0.00 0.00 49 1020.1
20220518124047 82 157 8.0 12.0 0.00 0.00 0.00 47 1020.1
20220518123525 84 205 5.0 10.0 0.00 0.00 0.00 46 1020.1
20220518123057 83 200 5.0 11.0 0.00 0.00 0.00 49 1020.1
20220518122536 82 232 3.0 11.0 0.00 0.00 0.00 48 1020.1
20220518122111 83 162 6.0 12.0 0.00 0.00 0.00 46 1020.1
20220518121550 83 183 3.0 11.0 0.00 0.00 0.00 49 1020.1
20220518121012 82 197 2.0 12.0 0.00 0.00 0.00 52 1020.2
20220518120607 82 244 2.0 12.0 0.00 0.00 0.00 49 1020.3
20220518120023 82 207 6.0 12.0 0.00 0.00 0.00 48 1020.2
20220518115507 83 142 4.0 9.0 0.00 0.00 0.00 46 1020.1
20220518115048 83 221 3.0 12.0 0.00 0.00 0.00 48 1020.2
20220518114519 83 248 6.0 12.0 0.00 0.00 0.00 46 1020.2
20220518114101 84 247 3.0 8.0 0.00 0.00 0.00 50 1020.2
20220518113540 82 178 2.0 12.0 0.00 0.00 0.00 51 1020.1
20220518113006 82 222 5.0 12.0 0.00 0.00 0.00 49 1020.1
20220518112553 82 191 3.0 10.0 0.00 0.00 0.00 50 1020.2
20220518112041 82 242 3.0 9.0 0.00 0.00 0.00 51 1017.8
20220518111514 81 240 3.0 8.0 0.00 0.00 0.00 51 1017.9
20220518111053 81 239 2.0 8.0 0.00 0.00 0.00 51 1017.9
20220518110532 81 227 2.0 8.0 0.00 0.00 0.00 51 1018.0
20220518110104 81 218 3.0 9.0 0.00 0.00 0.00 53 1018.1
20220518105543 81 223 5.0 9.0 0.00 0.00 0.00 52 1018.1
20220518105011 81 229 4.0 9.0 0.00 0.00 0.00 52 1018.2
20220518104556 80 217 3.0 7.0 0.00 0.00 0.00 53 1018.2
20220518104021 80 193 1.0 9.0 0.00 0.00 0.00 53 1018.3
20220518103611 80 260 5.0 9.0 0.00 0.00 0.00 52 1018.3
20220518103036 80 138 2.0 8.0 0.00 0.00 0.00 54 1018.3
20220518102509 80 144 4.0 8.0 0.00 0.00 0.00 54 1018.4
20220518102053 80 187 4.0 8.0 0.00 0.00 0.00 53 1018.4
20220518101521 79 197 3.0 8.0 0.00 0.00 0.00 57 1018.5
20220518101104 79 261 4.0 9.0 0.00 0.00 0.00 56 1018.5
20220518100545 79 279 5.0 9.0 0.00 0.00 0.00 54 1018.5
20220518100003 79 227 6.0 10.0 0.00 0.00 0.00 55 1018.5
20220518095555 78 216 1.0 8.0 0.00 0.00 0.00 56 1018.5
20220518095018 78 182 2.0 8.0 0.00 0.00 0.00 55 1018.6
20220518094621 78 178 2.0 8.0 0.00 0.00 0.00 57 1018.6
20220518094041 78 215 3.0 8.0 0.00 0.00 0.00 57 1018.6
20220518093511 78 223 5.0 10.0 0.00 0.00 0.00 57 1018.6
20220518093052 78 205 4.0 10.0 0.00 0.00 0.00 56 1018.6
20220518092531 77 198 4.0 10.0 0.00 0.00 0.00 56 1018.7
20220518092108 77 202 2.0 10.0 0.00 0.00 0.00 58 1018.7
20220518091553 76 244 3.0 10.0 0.00 0.00 0.00 58 1018.8
20220518091004 77 237 3.0 10.0 0.00 0.00 0.00 58 1018.7
20220518090556 76 238 5.0 9.0 0.00 0.00 0.00 58 1018.7
20220518090015 76 245 4.0 13.0 0.00 0.00 0.00 59 1018.8
20220518085606 75 203 7.0 15.0 0.00 0.00 0.00 58 1018.8
20220518085040 75 243 7.0 15.0 0.00 0.00 0.00 58 1018.9
20220518084508 76 251 5.0 14.0 0.00 0.00 0.00 57 1018.8
20220518084050 76 263 5.0 14.0 0.00 0.00 0.00 57 1018.8
20220518083519 77 221 5.0 11.0 0.00 0.00 0.00 56 1018.7
20220518083100 76 252 3.0 11.0 0.00 0.00 0.00 56 1018.7
20220518082541 76 246 6.0 12.0 0.00 0.00 0.00 58 1018.7
20220518082003 75 206 4.0 8.0 0.00 0.00 0.00 59 1018.8
20220518081552 75 193 3.0 8.0 0.00 0.00 0.00 60 1018.7
20220518081018 75 202 4.0 9.0 0.00 0.00 0.00 60 1018.7
20220518080605 75 211 3.0 10.0 0.00 0.00 0.00 60 1018.7
20220518080041 75 168 5.0 10.0 0.00 0.00 0.00 60 1018.7
20220518075504 75 208 1.0 9.0 0.00 0.00 0.00 61 1018.7
20220518075046 75 200 4.0 10.0 0.00 0.00 0.00 61 1018.7
20220518074519 75 132 4.0 9.0 0.00 0.00 0.00 60 1018.6
20220518074100 75 205 3.0 7.0 0.00 0.00 0.00 61 1018.7
20220518073539 74 211 2.0 8.0 0.00 0.00 0.00 62 1018.7
20220518073111 74 137 3.0 10.0 0.00 0.00 0.00 62 1018.6
20220518072550 73 229 4.0 10.0 0.00 0.00 0.00 63 1018.7
20220518072014 73 157 4.0 10.0 0.00 0.00 0.00 65 1018.7
20220518071607 73 131 3.0 6.0 0.00 0.00 0.00 65 1018.7
20220518071034 73 169 2.0 12.0 0.00 0.00 0.00 65 1018.7
20220518070504 72 158 4.0 14.0 0.00 0.00 0.00 64 1018.6
20220518070042 72 130 5.0 14.0 0.00 0.00 0.00 66 1018.5
20220518065515 72 139 5.0 14.0 0.00 0.00 0.00 67 1018.5
20220518065056 71 95 4.0 10.0 0.00 0.00 0.00 67 1018.5
20220518064535 71 146 3.0 10.0 0.00 0.00 0.00 68 1018.5
20220518064110 71 129 5.0 11.0 0.00 0.00 0.00 70 1018.6
20220518063552 70 139 5.0 11.0 0.00 0.00 0.00 69 1018.5
20220518063008 70 180 4.0 10.0 0.00 0.00 0.00 71 1018.6
20220518062559 69 165 5.0 10.0 0.00 0.00 0.00 70 1018.6
20220518062031 69 134 6.0 10.0 0.00 0.00 0.00 71 1018.7
20220518061502 69 142 4.0 10.0 0.00 0.00 0.00 72 1018.7
20220518061047 69 122 4.0 10.0 0.00 0.00 0.00 72 1018.7
20220518060514 68 149 3.0 9.0 0.00 0.00 0.00 73 1018.8
20220518060117 68 177 3.0 7.0 0.00 0.00 0.00 74 1018.7
20220518055535 67 150 3.0 8.0 0.00 0.00 0.00 75 1018.7
20220518055112 67 144 3.0 8.0 0.00 0.00 0.00 77 1018.7
20220518054556 66 148 3.0 7.0 0.00 0.00 0.00 78 1018.6
20220518054011 65 150 1.0 8.0 0.00 0.00 0.00 80 1018.6
20220518053605 64 129 2.0 6.0 0.00 0.00 0.00 81 1018.7
20220518053035 64 168 2.0 8.0 0.00 0.00 0.00 82 1018.8
20220518052504 63 138 2.0 8.0 0.00 0.00 0.00 83 1018.6
20220518052047 63 147 2.0 5.0 0.00 0.00 0.00 84 1018.5
20220518051520 62 150 2.0 6.0 0.00 0.00 0.00 85 1018.6
20220518051102 61 143 3.0 5.0 0.00 0.00 0.00 86 1018.6
20220518050538 61 140 2.0 5.0 0.00 0.00 0.00 87 1018.5
20220518050110 60 139 2.0 5.0 0.00 0.00 0.00 88 1018.5
20220518045550 60 133 2.0 5.0 0.00 0.00 0.00 88 1018.5
20220518045010 59 142 2.0 4.0 0.00 0.00 0.00 88 1018.4
20220518044601 59 142 2.0 4.0 0.00 0.00 0.00 89 1018.4
20220518044034 59 142 2.0 4.0 0.00 0.00 0.00 88 1018.3
20220518043617 59 142 1.0 4.0 0.00 0.00 0.00 88 1018.2
20220518043045 59 142 0.0 4.0 0.00 0.00 0.00 89 1018.2
20220518042524 59 142 1.0 5.0 0.00 0.00 0.00 89 1018.3
20220518042056 59 142 2.0 5.0 0.00 0.00 0.00 89 1018.2
20220518041535 58 148 2.0 5.0 0.00 0.00 0.00 89 1018.2
20220518041110 58 144 1.0 5.0 0.00 0.00 0.00 89 1018.2
20220518040548 58 144 1.0 5.0 0.00 0.00 0.00 89 1018.1
20220518040008 58 148 1.0 5.0 0.00 0.00 0.00 89 1018.0
20220518035558 58 148 2.0 5.0 0.00 0.00 0.00 89 1018.0
20220518035021 58 92 2.0 4.0 0.00 0.00 0.00 89 1017.9
20220518034612 58 129 2.0 4.0 0.00 0.00 0.00 89 1017.9
20220518034043 58 129 1.0 4.0 0.00 0.00 0.00 89 1017.8
20220518033516 58 129 1.0 5.0 0.00 0.00 0.00 89 1017.8
20220518033054 58 129 2.0 5.0 0.00 0.00 0.00 89 1017.8
20220518032533 58 134 2.0 6.0 0.00 0.00 0.00 89 1017.7
20220518032109 58 140 2.0 5.0 0.00 0.00 0.00 89 1017.8
20220518031548 58 127 2.0 5.0 0.00 0.00 0.00 89 1017.8
20220518031006 58 130 3.0 5.0 0.00 0.00 0.00 89 1017.7
20220518030601 58 140 3.0 7.0 0.00 0.00 0.00 89 1017.8
20220518030019 58 117 3.0 7.0 0.00 0.00 0.00 89 1017.8
20220518025608 58 119 3.0 6.0 0.00 0.00 0.00 89 1017.8
20220518025046 58 119 1.0 4.0 0.00 0.00 0.00 89 1017.9
20220518024509 58 119 2.0 4.0 0.00 0.00 0.00 89 1017.9
20220518024053 58 119 2.0 4.0 0.00 0.00 0.00 89 1018.0
20220518023520 58 119 2.0 4.0 0.00 0.00 0.00 89 1018.0
20220518023105 58 119 2.0 4.0 0.00 0.00 0.00 89 1018.1
20220518022543 58 119 2.0 4.0 0.00 0.00 0.00 88 1018.1
20220518022010 58 119 1.0 3.0 0.00 0.00 0.00 88 1018.3
20220518021603 58 119 1.0 3.0 0.00 0.00 0.00 88 1018.2
20220518021018 58 119 0.0 3.0 0.00 0.00 0.00 88 1018.3
20220518020609 58 119 1.0 2.0 0.00 0.00 0.00 88 1018.3
20220518020058 58 119 0.0 1.0 0.00 0.00 0.00 87 1018.3
20220518015505 58 119 0.0 1.0 0.00 0.00 0.00 87 1018.3
20220518015050 58 119 0.0 0.0 0.00 0.00 0.00 87 1018.4
20220518014518 58 119 0.0 0.0 0.00 0.00 0.00 86 1018.4
20220518014102 58 119 0.0 0.0 0.00 0.00 0.00 86 1018.5
20220518013526 58 119 0.0 0.0 0.00 0.00 0.00 86 1018.6
20220518013109 58 119 0.0 2.0 0.00 0.00 0.00 86 1018.5
20220518012543 58 119 0.0 2.0 0.00 0.00 0.00 86 1018.6
20220518012112 59 119 0.0 1.0 0.00 0.00 0.00 86 1018.7
20220518011551 59 119 0.0 0.0 0.00 0.00 0.00 86 1018.7
20220518011011 59 119 0.0 0.0 0.00 0.00 0.00 85 1018.7
20220518010603 59 119 0.0 1.0 0.00 0.00 0.00 85 1018.6
20220518010032 59 119 0.0 2.0 0.00 0.00 0.00 85 1018.8
20220518005502 59 119 0.0 2.0 0.00 0.00 0.00 85 1018.9
20220518005044 59 119 0.0 2.0 0.00 0.00 0.00 85 1018.9
20220518004513 60 119 0.0 2.0 0.00 0.00 0.00 85 1018.9
20220518004102 60 119 0.0 2.0 0.00 0.00 0.00 85 1019.0
20220518003543 60 119 0.0 2.0 0.00 0.00 0.00 84 1019.1
20220518003109 60 119 0.0 1.0 0.00 0.00 0.00 84 1019.0
20220518002550 60 119 0.0 1.0 0.00 0.00 0.00 84 1019.1
20220518002009 61 119 0.0 0.0 0.00 0.00 0.00 84 1019.0
20220518001601 61 119 0.0 0.0 0.00 0.00 0.00 84 1019.0
20220518001031 61 119 0.0 1.0 0.00 0.00 0.00 84 1018.9
20220518000615 61 119 0.0 1.0 0.00 0.00 0.00 84 1018.9
20220518000043 61 119 0.0 3.0 0.00 0.00 0.00 84 1018.9
20220517235522 61 119 0.0 4.0 0.00 0.00 0.00 83 1018.8
20220517235058 62 119 2.0 6.0 0.00 0.00 0.00 83 1018.8
20220517234535 62 119 1.0 6.0 0.00 0.00 0.00 83 1018.9
20220517234109 62 119 2.0 6.0 0.00 0.00 0.00 83 1018.9
20220517233548 62 119 1.0 6.0 0.00 0.00 0.00 83 1018.9
20220517233008 62 119 2.0 6.0 0.00 0.00 0.00 83 1018.8
20220517232559 62 119 1.0 4.0 0.00 0.00 0.00 82 1018.8
20220517232021 62 113 0.0 4.0 0.00 0.00 0.00 82 1018.8
20220517231502 62 113 1.0 4.0 0.00 0.00 0.00 82 1018.8
20220517231044 62 114 0.0 4.0 0.00 0.00 0.00 82 1018.8
20220517230513 62 113 1.0 3.0 0.00 0.00 0.00 82 1018.8
20220517230103 62 113 1.0 3.0 0.00 0.00 0.00 81 1018.8
20220517225523 63 114 1.0 3.0 0.00 0.00 0.00 81 1018.7
20220517225108 63 113 1.0 4.0 0.00 0.00 0.00 81 1018.8
20220517224546 63 104 2.0 6.0 0.00 0.00 0.00 81 1018.7
20220517224009 63 103 1.0 6.0 0.00 0.00 0.00 80 1018.8
20220517223558 63 102 1.0 6.0 0.00 0.00 0.00 80 1018.8
20220517223023 63 113 2.0 6.0 0.00 0.00 0.00 80 1018.7
20220517222608 63 107 2.0 6.0 0.00 0.00 0.00 80 1018.8
20220517222041 63 108 1.0 6.0 0.00 0.00 0.00 80 1018.8
20220517221527 64 106 2.0 4.0 0.00 0.00 0.00 79 1018.7
20220517221058 64 115 2.0 4.0 0.00 0.00 0.00 79 1018.8
20220517220524 64 86 1.0 5.0 0.00 0.00 0.00 79 1018.8
20220517220111 64 105 1.0 5.0 0.00 0.00 0.00 79 1018.8
20220517215545 64 107 1.0 6.0 0.00 0.00 0.00 79 1018.7
20220517215009 64 69 1.0 4.0 0.00 0.00 0.00 78 1018.8
20220517214606 64 103 1.0 5.0 0.00 0.00 0.00 78 1018.8
20220517214031 64 90 2.0 5.0 0.00 0.00 0.00 77 1018.9
20220517213613 64 89 1.0 4.0 0.00 0.00 0.00 77 1019.0
20220517213047 65 105 1.0 7.0 0.00 0.00 0.00 77 1018.9
20220517212512 65 113 2.0 7.0 0.00 0.00 0.00 77 1018.9
20220517212056 65 114 2.0 6.0 0.00 0.00 0.00 77 1018.8
20220517211534 65 90 3.0 7.0 0.00 0.00 0.00 76 1018.9
20220517211111 65 121 2.0 7.0 0.00 0.00 0.00 76 1018.9
20220517210550 65 107 2.0 5.0 0.00 0.00 0.00 76 1018.9
20220517210007 65 85 3.0 8.0 0.00 0.00 0.00 75 1018.9
20220517205558 66 115 4.0 8.0 0.00 0.00 0.00 75 1018.9
20220517205019 66 105 3.0 8.0 0.00 0.00 0.00 75 1018.9
20220517204611 66 115 2.0 8.0 0.00 0.00 0.00 75 1018.9
20220517204041 66 92 4.0 8.0 0.00 0.00 0.00 74 1018.9
20220517203509 66 116 2.0 9.0 0.00 0.00 0.00 74 1018.9
20220517203053 66 127 4.0 10.0 0.00 0.00 0.00 74 1018.8
20220517202525 67 117 5.0 10.0 0.00 0.00 0.00 74 1018.8
20220517202106 67 105 3.0 9.0 0.00 0.00 0.00 73 1018.8
20220517201555 67 92 4.0 10.0 0.00 0.00 0.00 73 1018.8
20220517201007 67 88 2.0 10.0 0.00 0.00 0.00 73 1018.8
20220517200558 67 105 2.0 8.0 0.00 0.00 0.00 73 1018.8
20220517200027 68 86 3.0 8.0 0.00 0.00 0.00 72 1018.8
20220517195610 68 66 2.0 7.0 0.00 0.00 0.00 72 1018.7
20220517195043 68 89 1.0 10.0 0.00 0.00 0.00 71 1018.6
20220517194510 68 88 4.0 10.0 0.00 0.00 0.00 71 1018.6
20220517194052 68 80 5.0 9.0 0.00 0.00 0.00 70 1018.6
20220517193532 68 66 2.0 9.0 0.00 0.00 0.00 70 1018.6
20220517193103 69 132 1.0 10.0 0.00 0.00 0.00 70 1018.5
20220517192546 69 101 3.0 10.0 0.00 0.00 0.00 70 1018.4
20220517192004 69 94 4.0 11.0 0.00 0.00 0.00 69 1018.3
20220517191614 69 46 4.0 11.0 0.00 0.00 0.00 69 1018.3
20220517191029 69 91 3.0 11.0 0.00 0.00 0.00 69 1018.2
20220517190611 70 90 4.0 9.0 0.00 0.00 0.00 68 1018.3
20220517190038 70 90 2.0 8.0 0.00 0.00 0.00 68 1018.3
20220517185507 70 90 3.0 8.0 0.00 0.00 0.00 68 1018.3
20220517185051 70 104 3.0 9.0 0.00 0.00 0.00 67 1018.4
20220517184530 70 79 5.0 9.0 0.00 0.00 0.00 67 1018.4
20220517184108 71 88 3.0 8.0 0.00 0.00 0.00 66 1018.4
20220517183542 71 65 3.0 9.0 0.00 0.00 0.00 66 1018.4
20220517183003 71 87 2.0 7.0 0.00 0.00 0.00 65 1018.5
20220517182553 71 83 2.0 8.0 0.00 0.00 0.00 65 1018.5
20220517182015 72 95 3.0 9.0 0.00 0.00 0.00 64 1018.5
20220517181606 72 79 4.0 11.0 0.00 0.00 0.00 63 1018.5
20220517181027 72 82 6.0 11.0 0.00 0.00 0.00 63 1018.5
20220517180505 73 82 4.0 9.0 0.00 0.00 0.00 63 1018.5
20220517180054 73 125 6.0 9.0 0.00 0.00 0.00 62 1018.5
20220517175529 73 129 4.0 9.0 0.00 0.00 0.00 61 1018.4
20220517175100 74 121 3.0 10.0 0.00 0.00 0.00 61 1018.4
20220517174540 74 104 4.0 12.0 0.00 0.00 0.00 61 1018.4
20220517174003 74 116 6.0 12.0 0.00 0.00 0.00 60 1018.5
20220517173554 74 109 5.0 10.0 0.00 0.00 0.00 61 1018.4
20220517173014 74 90 4.0 10.0 0.00 0.00 0.00 61 1018.4
20220517172605 74 48 5.0 11.0 0.00 0.00 0.00 60 1018.4
20220517172038 74 121 6.0 12.0 0.00 0.00 0.00 60 1018.4
20220517171505 75 92 6.0 13.0 0.00 0.00 0.00 59 1018.4
20220517171048 75 99 7.0 14.0 0.00 0.00 0.00 59 1018.4
20220517170520 75 105 6.0 14.0 0.00 0.00 0.00 59 1018.3
20220517170058 75 80 4.0 10.0 0.00 0.00 0.00 59 1018.4
20220517165538 75 116 4.0 12.0 0.00 0.00 0.00 58 1018.3